Regional Weather Roundup
Issued by NWS Austin/San Antonio, TX

Home | Current Version | Previous Version | Text Only | Print | Product List | Glossary On
Versions: 1 2 3 4 5 6 7 8 9 10 11 12 13 14 15 16 17 18 19 20 21 22 23 24 25 26 27 28 29 30 31 32 33 34 35 36 37 38 39 40 41 42 43 44 45 46 47 48 49 50
000
ASUS44 KEWX 201901
RWREWX
SOUTH TEXAS REGIONAL WEATHER ROUNDUP
NATIONAL WEATHER SERVICE AUSTIN/SAN ANTONIO TX
200 PM CDT WED SEP 20 2017

NOTE: "FAIR" INDICATED FEW OR NO CLOUDS BELOW 12,000 FEET WITH NO
SIGNIFICANT WEATHER AND/OR OBSTRUCTIONS TO VISIBILITY.

* - THESE STATIONS ARE NOT NWS OR FAA STATIONS...AND ARE NOT SUBJECT
    TO NWS AND FAA QUALITY CONTROL.

TXZ171-172-183>190-202000-
TEXAS HILL COUNTRY AND EDWARDS PLATEAU

CITY           SKY/WX    TMP DP  RH WIND       PRES   REMARKS
JUNCTION       SUNNY     94  67  41 SW13G21   29.90F HX  97
*LLANO         SUNNY     97  70  41 E8        29.91F HX 103
BURNET         SUNNY     93  69  45 S18G24    29.92F HX  98
*HORSESHOE BAY SUNNY     93  69  44 S10G18    29.90F HX  98
*KERRVILLE     MOSUNNY   89  75  63 S12       29.94F HX  98
*FREDERICKSBRG MOSUNNY   88  68  52 S16       29.94F HX  91
*ROCKSPRINGS   NOT AVBL
*BOERNE STAGE  PTSUNNY   88  70  55 S13       29.94F HX  92
*CASTROVILLE   MOSUNNY   95  68  41 SE13      29.91F HX  99
HONDO          MOSUNNY   93  72  50 S10       29.90F HX 101
*UVALDE        MOSUNNY   92  72  52 S9        29.89F HX  99
DEL RIO        SUNNY     95  72  47 SE12G20   29.85F HX 103
LAUGHLIN AFB   MOSUNNY   96  72  46 S14G20    29.85F HX 104
CARRIZO SPRGS  SUNNY     95  72  46 SE8       29.84F HX 103
*EAGLE PASS    CLEAR     97  72  44 SE13      29.87F HX 105
$$

TXZ173-191>194-202-209-217>225-228-202000-
CENTRAL AND SOUTH CENTRAL TEXAS

CITY           SKY/WX    TMP DP  RH WIND       PRES   REMARKS
GEORGETOWN     SUNNY     91  72  53 SE16      29.91F HX  98
AUSTIN/BERGSTM MOSUNNY   93  73  52 S14       29.89F HX 102
AUSTIN/MABRY   MOSUNNY   93  72  50 VRB6      29.90F HX 101
*AUSTIN/EXEC   MOSUNNY   91  72  52 S13       29.91F HX  98
*LAGO VISTA    MOSUNNY   92  69  47 S12G21    29.93F HX  97
SAN MARCOS     MOSUNNY   91  73  55 S13G22    29.90F HX  99
NEW BRAUNFELS  MOSUNNY   94  73  50 S15G24    29.89F HX 103
RANDOLPH AFB   MOSUNNY   92  72  50 S10G17    29.89F HX 100
PT SAN ANTONIO MOSUNNY   93  72  49 S9        29.87F HX 101
SAN ANTONIO    PTSUNNY   92  71  50 S13       29.90F HX  98
STINSON FIELD  MOSUNNY   96  71  44 S12G20    29.87F HX 103
*LA GRANGE     MOSUNNY   93  76  56 S9        29.88F HX 106
*GIDDINGS      MOSUNNY   91  71  52 S10G18    29.91F HX  97
*GONZALES      MOSUNNY   93  76  56 S14       29.89F HX 105
$$

TXZ163>164-176>182-195>201-210>213-226-227-235-202000-
SOUTHEAST TEXAS

CITY           SKY/WX    TMP DP  RH WIND       PRES   REMARKS
COLLEGE STN    PTSUNNY   91  73  55 S10       29.90F HX  99
*BRYAN         PTSUNNY   91  72  53 S12G18    29.92F HX  99
*CALDWELL      MOSUNNY   91  74  57 S12G17    29.91F HX 100
*CROCKETT      PTSUNNY   90  73  58 S8        29.95F HX  98
*BRENHAM       MOSUNNY   92  73  52 S10G16    29.92F HX 101
HUNTSVILLE     MOSUNNY   91  70  49 VRB7      29.92F HX  96
CONROE         MOSUNNY   93  71  48 S10G16    29.92F HX 100
HOUSTON BUSH   PTSUNNY   89  73  59 SW6       29.92F HX  97
HOUSTON HOBBY  MOSUNNY   90  74  59 S8        29.93F HX  99
*HOUSTON SW AP MOSUNNY   89  78  70 SE5       29.93F HX 103
PEARLAND       LGT RAIN  84  77  79 E5        29.95F HX  94
HOUSTON HOOKS  PTSUNNY   91  73  55 VRB6      29.91F HX  99
ELLINGTON FLD  TSTM      88  77  70 SW9       29.96S HX 100
SUGAR LAND     PTSUNNY   92  73  53 S13       29.91F HX 100
*HOUSTON EXEC  MOSUNNY   93  75  55 MISG      29.92F HAZE    HX 104
*CLEVELAND MUN MOSUNNY   87  72  61 S9G20     29.95S HX  93
*WHARTON       MOSUNNY   91  70  49 S13       29.92F HX  96
*COLUMBUS      FAIR      92  71  51 S9G16     29.91F HX  98
*EAGLE LAKE    MOCLDY    92  74  55 S10G17    29.90F HX 102
$$

TXZ214>216-236>238-202000-
THE UPPER TEXAS COAST

CITY           SKY/WX    TMP DP  RH WIND       PRES   REMARKS
*ORANGE        TSTM      78  76  92 W6        29.98S
PORT ARTHUR    CLOUDY    85  76  74 S8        29.95F THUNDER HX  94
GALVESTON      PTSUNNY   90  79  70 S14       29.96F HX 106
ANGLETON       MOSUNNY   92  76  59 S14       29.93F HX 104
*BAY CITY      HAZE      91  77  62 S14G21    29.92F VSB 3/4 HX 104
PALACIOS       MOSUNNY   88  77  69 S14       29.92F HX 100
$$

TXZ229>234-239>247-202000-
TEXAS COASTAL BEND AND RIO GRANDE PLAINS

CITY           SKY/WX    TMP DP  RH WIND       PRES   REMARKS
VICTORIA       PTSUNNY   91  75  59 S13       29.90F HX 101
*BEEVILLE      PTSUNNY   95  60  31 SE9G16    29.88F HX  94
ROCKPORT       MOSUNNY   89  76  65 SE15G23   29.90F HX 100
*PORT ARANSAS  NOT AVBL
*PORT LAVACA   PTSUNNY   90  74  59 S16       29.91F HX  99
*INGLESIDE     NOT AVBL
CORPUS CHRISTI PTSUNNY   94  75  54 SE16G23   29.88F HX 105
CORPUS NAS     PTSUNNY   92  78  63 S15       29.89F HX 107
*ROBSTOWN      MOSUNNY   94  74  52 S14       29.88F HX 103
ALICE          MOSUNNY   98  68  37 S13G18    29.86F HX 103
KINGSVILLE NAS PTSUNNY   98  74  45 SE16G23   29.87F HX 109
COTULLA        SUNNY     97  68  38 S10G17    29.85F HX 102
*FAITH RANCH   SUNNY     97  70  41 VRB6G16   29.85F HX 103
LAREDO         SUNNY     98  70  40 S12       29.85F HX 105
$$

TXZ248>255-202000-
DEEP SOUTH TEXAS

CITY           SKY/WX    TMP DP  RH WIND       PRES   REMARKS
BROWNSVILLE    MOSUNNY   91  77  63 S15G24    29.88F HX 104
PORT ISABEL    PTSUNNY   94  77  57 SE20G28   29.87F HX 108
*SOUTH PADRE   NOT AVBL
HARLINGEN      PTSUNNY   95  75  52 SE18      29.86F HX 107
*HEBBRONVILLE  SUNNY     96  61  31 S13G18    29.88F HX  96
MCALLEN        SUNNY     99  69  37 S14G24    29.85F HX 105
*WESLACO       MOSUNNY   96  68  39 S12G20    29.85F HX 100
FALFURRIAS     MOSUNNY  -38  32 100 SE10G17   29.85F WCI -63
EDINBURG       MOSUNNY   99  64  32 SE12G18   29.86F HX 101
*ZAPATA        MOSUNNY   98  64  32 SE10G16   29.84F HX  99
$$

TXZ213>215-236>238-242>244-246-247-251-254-255-202000-
CMAN STATIONS

STATION/POSITION TIME  TEMP    WIND        PRES    WAVE
                       AIR SEA DIR/SP/G            HT/PER
                 (UTC) (F)     (DEG/KT/KT) (MB)    (FT/S)
SABINE PASS      1830   85 85  150/ 15/ 17 1016.0
SEA RIM ST PARK  1800   85     180/ 11/ 13 1015.5
NORTH JETTY/GLS  1830      85  160/ 12/ 15 1014.0
EAGLE POINT      1830   85 85  170/ 15/ 18 1014.1
MORGANS POINT    1830   86 83  130/  8/ 13 1014.1
PORT O`CONNOR    1824   85 85  170/ 12/ 15 1013.1
MALAQUITE BEACH  1824   84 85  140/ 14/ 15 1012.3
BAFFIN BAY       1824   85 86  130/ 16/ 20 1012.4
PORT ISABEL      1824   86 85  140/ 15/ 19 1012.5
$$



USA.gov is the U.S. government's official web portal to all federal, state and local government web resources and services.